Location: Newark
(58.8333°N, 23.5833°E)
Time: 07:49:40
(UTC+00:00)

A-11 Canister half - Pass Details

Date: 24 November 2019
Orbit: 1515 x 1685 km, 47.2° (Epoch: 08 December)

Event Time Altitude Azimuth Distance (km) Brightness Sun altitude
Rises 16:12:02 0° 234° (SW) 4,883 12.8 -17.5°
Reaches altitude 10° 16:15:25 10° 227° (SW) 3,914 12.0 -17.9°
Maximum altitude 16:24:25 39° 163° (SSE) 2,338 9.8 -19.0°
Enters shadow 16:30:14 22° 112° (ESE) 3,110 10.1 -19.8°
Drops below altitude 10° 16:33:30 10° 100° (E) 3,949 - -20.2°
Sets 16:36:55 0° 93° (E) 4,930 - -20.7°
